This demonstration page uses our WeatherBlox Daily Observations layout. Learn more.

Hourly Observations for September 27, 2015

Temp ( °F °C ) Dew Point ( °F °C ) Humidity (%) Winds ( mph kmh ) Pressure ( in mb ) Visibility ( mi km ) Precip ( " mm )
12:15 am 00:15 Clear 60 15.7 53 11.8 78 78 SSE 6 9 30.03 1017 10 16.0934 0 0
12:35 am 00:35 Clear 61 16 53 11.5 75 75 S 8 13 30.03 1017 10 16.0934 0 0
12:55 am 00:55 Clear 60 15.7 53 11.5 76 76 S 6 9 30 1016 10 16.0934 0 0
1:15 am 01:15 Clear 60 15.3 53 11.5 78 78 S 6 9 30 1016 10 16.0934 0 0
1:35 am 01:35 Clear 59 15.1 52 11.2 78 78 S 6 9 30 1016 10 16.0934 0 0
1:55 am 01:55 Clear 59 15 52 11.1 78 78 S 8 13 30 1016 10 16.0934 0 0
2:15 am 02:15 Clear 58 14.7 52 11 79 79 S 6 9 30 1016 10 16.0934 0 0
2:35 am 02:35 Clear 58 14.5 52 11 80 80 S 5 7 30 1016 10 16.0934 0 0
2:55 am 02:55 Clear 57 14 52 11 82 82 S 5 7 30 1016 10 16.0934 0 0
3:15 am 03:15 Clear 56 13.6 52 11 84 84 S 6 9 30 1016 10 16.0934 0 0
3:35 am 03:35 Clear 57 13.7 51 10.8 83 83 S 7 11 29.97 1015 10 16.0934 0 0
3:55 am 03:55 Clear 56 13.5 51 10.7 83 83 S 6 9 29.97 1015 10 16.0934 0 0
4:15 am 04:15 Clear 56 13.1 51 10.6 85 85 S 5 7 29.97 1015 10 16.0934 0 0
4:35 am 04:35 Clear 55 12.9 51 10.6 86 86 S 6 9 29.97 1015 10 16.0934 0 0
4:55 am 04:55 Clear 55 13 51 10.6 85 85 S 7 11 29.97 1015 10 16.0934 0 0
5:15 am 05:15 Clear 55 12.8 51 10.6 87 87 S 6 9 29.97 1015 10 16.0934 0 0
5:35 am 05:35 Clear 55 13 51 10.6 85 85 S 6 9 29.97 1015 10 16.0934 0 0
5:55 am 05:55 Clear 55 12.8 51 10.5 86 86 S 6 9 29.97 1015 10 16.0934 0 0
6:15 am 06:15 Clear 55 12.6 51 10.5 87 87 S 5 7 29.97 1015 10 16.0934 0 0
6:35 am 06:35 Clear 55 12.7 51 10.5 87 87 S 5 7 29.97 1015 10 16.0934 0 0
6:55 am 06:55 Clear 55 13 51 10.5 85 85 S 7 11 29.97 1015 10 16.0934 0 0
7:15 am 07:15 Clear 55 12.6 51 10.3 86 86 S 6 9 29.97 1015 10 16.0934 0 0
7:35 am 07:35 Sunny 55 12.5 51 10.3 87 87 S 5 7 29.97 1015 10 16.0934 0 0
7:55 am 07:55 Sunny 55 13 51 10.5 85 85 S 6 9 29.97 1015 10 16.0934 0 0
8:15 am 08:15 Sunny 57 14 52 10.9 82 82 S 8 13 29.97 1015 10 16.0934 0 0
8:35 am 08:35 Sunny 59 15 53 11.4 79 79 S 8 13 29.97 1015 10 16.0934 0 0
8:55 am 08:55 Sunny 61 16 54 12 77 77 S 7 11 29.94 1014 10 16.0934 0 0
9:15 am 09:15 Sunny 63 17.2 55 12.6 75 75 S 9 15 29.94 1014 10 16.0934 0 0
9:35 am 09:35 Sunny 65 18.2 56 13.1 72 72 S 10 17 29.94 1014 10 16.0934 0 0
9:55 am 09:55 Sunny 67 19.6 56 13.6 68 68 S 12 19 29.91 1013 10 16.0934 0 0
10:15 am 10:15 Sunny 70 21 57 13.8 64 64 SSW 15 24 29.91 1013 10 16.0934 0 0
10:35 am 10:35 Sunny 71 21.9 57 14 61 61 S 14 22 29.91 1013 10 16.0934 0 0
10:55 am 10:55 Sunny 73 23 57 14 57 57 S 15 24 29.91 1013 10 16.0934 0 0
11:15 am 11:15 Sunny 75 23.7 57 13.7 54 54 SSW 17 28 29.85 1011 10 16.0934 0 0
11:35 am 11:35 Sunny 76 24.5 56 13.6 51 51 S 20 31 29.85 1011 10 16.0934 0 0
11:55 am 11:55 Sunny 77 25.1 56 13.5 49 49 S 17 28 29.85 1011 10 16.0934 0 0
12:15 pm 12:15 Sunny 78 25.7 56 13.4 47 47 SSW 16 26 29.85 1011 10 16.0934 0 0
12:35 pm 12:35 Sunny 79 25.9 56 13.2 45 45 SSW 17 28 29.83 1010 10 16.0934 0 0
12:55 pm 12:55 Sunny 80 26.5 56 13.2 44 44 S 17 28 29.8 1009 10 16.0934 0 0
1:15 pm 13:15 Sunny 80 26.9 55 12.7 41 41 SSW 20 31 29.8 1009 10 16.0934 0 0
1:35 pm 13:35 Sunny 81 27.2 54 12.3 40 40 SSW 18 30 29.8 1009 10 16.0934 0 0
1:55 pm 13:55 Sunny 82 27.7 54 12.3 39 39 SSW 16 26 29.77 1008 10 16.0934 0 0
2:15 pm 14:15 Sunny 82 28 54 12.4 38 38 SSW 17 28 29.77 1008 10 16.0934 0 0
2:35 pm 14:35 Sunny 82 27.8 54 12.3 38 38 SSW 14 22 29.77 1008 10 16.0934 0 0
2:55 pm 14:55 Sunny 82 28 53 11.7 36 36 S 16 26 29.74 1007 10 16.0934 0 0
3:15 pm 15:15 Sunny 83 28.4 53 11.7 36 36 S 23 37 29.74 1007 10 16.0934 0 0
3:35 pm 15:35 Sunny 83 28.5 53 11.6 35 35 SSW 16 26 29.74 1007 10 16.0934 0 0
3:55 pm 15:55 Sunny 84 28.7 53 11.4 34 34 SSW 14 22 29.74 1007 10 16.0934 0 0
4:15 pm 16:15 Sunny 83 28.6 53 11.5 35 35 SSW 13 20 29.68 1005 10 16.0934 0 0
4:35 pm 16:35 Sunny 84 28.7 52 11.2 34 34 SSW 16 26 29.68 1005 10 16.0934 0 0
4:55 pm 16:55 Sunny 84 28.8 52 11.3 34 34 S 16 26 29.68 1005 10 16.0934 0 0
5:15 pm 17:15 Sunny 83 28.6 53 11.4 34 34 S 13 20 29.68 1005 10 16.0934 0 0
5:35 pm 17:35 Sunny 83 28.6 53 11.4 34 34 S 9 15 29.68 1005 10 16.0934 0 0
5:55 pm 17:55 undefined 83 28.5 52 11.2 34 34 S 14 22 29.68 1005 10 16.0934 0 0
6:15 pm 18:15 Sunny 83 28.1 52 11.3 35 35 S 13 20 29.71 1006 10 16.0934 0 0
6:35 pm 18:35 Sunny 82 27.6 52 11.3 36 36 S 10 17 29.71 1006 10 16.0934 0 0
6:55 pm 18:55 Sunny 80 26.8 53 11.6 39 39 S 8 13 29.71 1006 10 16.0934 0 0
7:15 pm 19:15 Sunny 78 25.7 53 11.8 42 42 S 6 9 29.71 1006 10 16.0934 0 0
7:35 pm 19:35 Clear 76 24.2 54 12.1 47 47 S 6 9 29.74 1007 10 16.0934 0 0
7:55 pm 19:55 Clear 73 22.6 54 12.3 52 52 SSE 7 11 29.77 1008 10 16.0934 0 0
8:15 pm 20:15 Clear 72 22.2 54 12.2 53 53 SSE 7 11 29.77 1008 10 16.0934 0 0
8:35 pm 20:35 Clear 72 22 54 12.1 54 54 SSE 6 9 29.77 1008 10 16.0934 0 0
8:55 pm 20:55 Clear 68 20.1 55 12.6 62 62 SE 6 9 29.8 1009 10 16.0934 0 0
9:15 pm 21:15 Clear 66 18.7 55 12.7 68 68 SE 7 11 29.8 1009 10 16.0934 0 0
9:35 pm 21:35 Clear 65 18.4 55 12.7 70 70 SSE 8 13 29.83 1010 10 16.0934 0 0
9:55 pm 21:55 Clear 66 18.7 55 12.6 68 68 SSE 7 11 29.8 1009 10 16.0934 0 0
10:15 pm 22:15 Clear 66 18.8 55 12.5 67 67 SSE 6 9 29.83 1010 10 16.0934 0 0
10:35 pm 22:35 Clear 66 18.8 55 12.5 67 67 SSE 8 13 29.83 1010 10 16.0934 0 0
10:55 pm 22:55 Clear 67 19.3 55 12.6 65 65 S 8 13 29.83 1010 10 16.0934 0 0
11:15 pm 23:15 Clear 66 19.1 55 12.6 66 66 S 8 13 29.83 1010 10 16.0934 0 0
11:35 pm 23:35 Clear 66 18.8 55 12.6 67 67 S 9 15 29.83 1010 10 16.0934 0 0
11:55 pm 23:55 Clear 65 18.6 55 12.5 68 68 S 7 11 29.83 1010 10 16.0934 0 0

Powered by AerisWeather